Jasná obloha bez mraků
Jasno s ojedinělými nízkými oblaky
Jasno s ojedinělými nízkými oblaky
Jasno s ojedinělými nízkými oblaky a ojedinělou řasovou slohou
Jasno s ojedinělými nízkými oblaky a ojedinělou řasovou slohou
Jasno, ale opar s několik řasovými oblaky
Jasno, ale opar
Jasná obloha bez mraků
Jasná obloha bez mraků
(°C)
20°
20°
19°
19°
18°
18°
17°
17°
15°
15°
15°
15°
15°
15°
15°
15°
17°
17°
(°C)
19°
17°
16°
15°
14°
14°
13°
14°
16°
SSV
SSV
SV
SV
SV
SV
SSV
SSV
SZ
(km/h)
13-25
12-25
11-24
10-23
9-20
9-17
8-11
7-10
6-9
(mm)
0
0
0
0
0
0
0
0
0
(%)
0
0
0
0
0
0
0
0
0

Sluneční výška

/ -7.2°
sun-icon
UV 6
04:09
21:40
Dorůstající měsíc (126°)
16:33
01:38

METAR pro 55.31°S 61.5°V (USCC)

Čas Podmínky Teplota/
Rosný bod
Vítr Viditelnost Počasí Oblaky Tlak Změna Nezpracované
VFR 20°C / 13°C 40º 8kt 9700m - Clouds and Visibility OK 1018 No Significant change USCC 171730Z 04004MPS CAVOK 20/13 Q1018 R27/000060 NOSIG RMK QFE744
VFR 20°C / 13°C 360º 4kt 9700m - Clouds and Visibility OK 1018 No Significant change USCC 171700Z 36002MPS CAVOK 20/13 Q1018 R27/000060 NOSIG RMK QFE743
VFR 20°C / 14°C 360º 4kt 9700m - Clouds and Visibility OK 1017 No Significant change USCC 171630Z 36002MPS CAVOK 20/14 Q1017 R27/000060 NOSIG RMK QFE743
VFR 22°C / 13°C 20º 4kt 9700m - Clouds and Visibility OK 1017 No Significant change USCC 171600Z 02002MPS CAVOK 22/13 Q1017 R27/000060 NOSIG RMK QFE743
VFR 23°C / 13°C 20º 4kt 9700m - Clouds and Visibility OK 1017 No Significant change USCC 171530Z 02002MPS CAVOK 23/13 Q1017 R27/000060 NOSIG RMK QFE743
VFR 24°C / 14°C 40º 6kt 9700m - Clouds and Visibility OK 1017 No Significant change USCC 171500Z 04003MPS CAVOK 24/14 Q1017 R27/000060 NOSIG RMK QFE742
VFR 24°C / 14°C 50º 8kt 9700m - Clouds and Visibility OK 1017 No Significant change USCC 171430Z 05004MPS CAVOK 24/14 Q1017 R27/000060 NOSIG RMK QFE742
VFR 25°C / 14°C 40º 6kt 9700m - Clouds and Visibility OK 1016 No Significant change USCC 171400Z 04003MPS CAVOK 25/14 Q1016 R27/000060 NOSIG RMK QFE742
VFR 26°C / 13°C 10º 6kt 9700m - Clouds and Visibility OK 1016 No Significant change USCC 171330Z 01003MPS CAVOK 26/13 Q1016 R27/000060 NOSIG RMK QFE742
VFR 26°C / 13°C 10º 6kt 9700m - Few Clouds 4000ft 1016 No Significant change USCC 171300Z 01003MPS 9999 FEW040 26/13 Q1016 R27/000060 NOSIG RMK QFE742
VFR 26°C / 13°C 350º 4kt 9700m - Few Clouds 4000ft 1016 No Significant change USCC 171230Z 35002MPS 9999 FEW040 26/13 Q1016 R27/000060 NOSIG RMK QFE742
VFR 26°C / 13°C 10º 6kt 9700m - Few Clouds 4000ft 1016 No Significant change USCC 171200Z 01003MPS 9999 FEW040 26/13 Q1016 R27/000060 NOSIG RMK QFE742
VFR 26°C / 13°C 10º 6kt 9700m - Few Clouds 4000ft 1016 No Significant change USCC 171130Z 01003MPS 9999 FEW040 26/13 Q1016 R27/000060 NOSIG RMK QFE742
VFR 26°C / 13°C 350º 6kt 9700m - Few Clouds 4000ft 1016 No Significant change USCC 171100Z 35003MPS 9999 FEW040 26/13 Q1016 R27/000060 NOSIG RMK QFE742
VFR 26°C / 14°C 20º 8kt 9700m - Few Clouds 4000ft 1016 No Significant change USCC 171030Z 02004MPS 9999 FEW040 26/14 Q1016 R27/000060 NOSIG RMK QFE742
VFR 26°C / 15°C 360º 8kt 9700m - Scattered Clouds 4000ft 1016 No Significant change USCC 171000Z 36004MPS 9999 SCT040 26/15 Q1016 R27/000060 NOSIG RMK QFE742
VFR 28°C / 14°C 330º 10kt 9700m - Scattered Clouds 4000ft 1016 No Significant change USCC 170930Z 33005MPS 9999 SCT040 28/14 Q1016 R27/000060 NOSIG RMK QFE742
VFR 27°C / 15°C 340º 10kt 9700m - Scattered Clouds 3300ft 1016 No Significant change USCC 170900Z 34005MPS 9999 SCT033 27/15 Q1016 R09/000060 NOSIG RMK QFE741
VFR 26°C / 16°C 330º 10kt 9700m - Scattered Clouds 3300ft 1016 No Significant change USCC 170830Z 33005MPS 9999 SCT033CB 26/16 Q1016 R27/000060 NOSIG RMK QFE742
MVFR 26°C / 17°C 320º 10kt 9700m - Broken Clouds 3000ft 1016 No Significant change USCC 170800Z 32005MPS 9999 BKN030CB 26/17 Q1016 R27/000060 NOSIG RMK QFE742
MVFR 26°C / 17°C 330º 8kt 9700m - Broken Clouds 3000ft 1016 No Significant change USCC 170730Z 33004MPS 9999 BKN030CB 26/17 Q1016 R27/000060 NOSIG RMK QFE742
MVFR 26°C / 17°C 320º 8kt 9700m - Broken Clouds 3000ft 1016 No Significant change USCC 170700Z 32004MPS 9999 BKN030CB 26/17 Q1016 R27/000060 NOSIG RMK QFE742
VFR 25°C / 18°C 310º variable 280º to 360º 8kt 9700m - Scattered Clouds 3000ft 1016 No Significant change USCC 170630Z 31004MPS 280V360 9999 SCT030CB 25/18 Q1016 R09/000060 NOSIG RMK QFE741
VFR 25°C / 18°C 320º 8kt 9700m - Scattered Clouds 3000ft 1016 No Significant change USCC 170600Z 32004MPS 9999 SCT030CB 25/18 Q1016 R27/000060 NOSIG RMK QFE742

VFR

20°C / 13°C

[Víc]
Vítr 40º 8kt
Viditelnost 9700m
Počasí -
Oblaky Clouds and Visibility OK
Tlak 1018
Změna No Significant change
Nezpracované USCC 171730Z 04004MPS CAVOK 20/13 Q1018 R27/000060 NOSIG RMK QFE744

VFR

20°C / 13°C

[Víc]
Vítr 360º 4kt
Viditelnost 9700m
Počasí -
Oblaky Clouds and Visibility OK
Tlak 1018
Změna No Significant change
Nezpracované USCC 171700Z 36002MPS CAVOK 20/13 Q1018 R27/000060 NOSIG RMK QFE743

VFR

20°C / 14°C

[Víc]
Vítr 360º 4kt
Viditelnost 9700m
Počasí -
Oblaky Clouds and Visibility OK
Tlak 1017
Změna No Significant change
Nezpracované USCC 171630Z 36002MPS CAVOK 20/14 Q1017 R27/000060 NOSIG RMK QFE743

VFR

22°C / 13°C

[Víc]
Vítr 20º 4kt
Viditelnost 9700m
Počasí -
Oblaky Clouds and Visibility OK
Tlak 1017
Změna No Significant change
Nezpracované USCC 171600Z 02002MPS CAVOK 22/13 Q1017 R27/000060 NOSIG RMK QFE743

VFR

23°C / 13°C

[Víc]
Vítr 20º 4kt
Viditelnost 9700m
Počasí -
Oblaky Clouds and Visibility OK
Tlak 1017
Změna No Significant change
Nezpracované USCC 171530Z 02002MPS CAVOK 23/13 Q1017 R27/000060 NOSIG RMK QFE743

VFR

24°C / 14°C

[Víc]
Vítr 40º 6kt
Viditelnost 9700m
Počasí -
Oblaky Clouds and Visibility OK
Tlak 1017
Změna No Significant change
Nezpracované USCC 171500Z 04003MPS CAVOK 24/14 Q1017 R27/000060 NOSIG RMK QFE742

VFR

24°C / 14°C

[Víc]
Vítr 50º 8kt
Viditelnost 9700m
Počasí -
Oblaky Clouds and Visibility OK
Tlak 1017
Změna No Significant change
Nezpracované USCC 171430Z 05004MPS CAVOK 24/14 Q1017 R27/000060 NOSIG RMK QFE742

VFR

25°C / 14°C

[Víc]
Vítr 40º 6kt
Viditelnost 9700m
Počasí -
Oblaky Clouds and Visibility OK
Tlak 1016
Změna No Significant change
Nezpracované USCC 171400Z 04003MPS CAVOK 25/14 Q1016 R27/000060 NOSIG RMK QFE742

VFR

26°C / 13°C

[Víc]
Vítr 10º 6kt
Viditelnost 9700m
Počasí -
Oblaky Clouds and Visibility OK
Tlak 1016
Změna No Significant change
Nezpracované USCC 171330Z 01003MPS CAVOK 26/13 Q1016 R27/000060 NOSIG RMK QFE742

VFR

26°C / 13°C

[Víc]
Vítr 10º 6kt
Viditelnost 9700m
Počasí -
Oblaky Few Clouds 4000ft
Tlak 1016
Změna No Significant change
Nezpracované USCC 171300Z 01003MPS 9999 FEW040 26/13 Q1016 R27/000060 NOSIG RMK QFE742

VFR

26°C / 13°C

[Víc]
Vítr 350º 4kt
Viditelnost 9700m
Počasí -
Oblaky Few Clouds 4000ft
Tlak 1016
Změna No Significant change
Nezpracované USCC 171230Z 35002MPS 9999 FEW040 26/13 Q1016 R27/000060 NOSIG RMK QFE742

VFR

26°C / 13°C

[Víc]
Vítr 10º 6kt
Viditelnost 9700m
Počasí -
Oblaky Few Clouds 4000ft
Tlak 1016
Změna No Significant change
Nezpracované USCC 171200Z 01003MPS 9999 FEW040 26/13 Q1016 R27/000060 NOSIG RMK QFE742

VFR

26°C / 13°C

[Víc]
Vítr 10º 6kt
Viditelnost 9700m
Počasí -
Oblaky Few Clouds 4000ft
Tlak 1016
Změna No Significant change
Nezpracované USCC 171130Z 01003MPS 9999 FEW040 26/13 Q1016 R27/000060 NOSIG RMK QFE742

VFR

26°C / 13°C

[Víc]
Vítr 350º 6kt
Viditelnost 9700m
Počasí -
Oblaky Few Clouds 4000ft
Tlak 1016
Změna No Significant change
Nezpracované USCC 171100Z 35003MPS 9999 FEW040 26/13 Q1016 R27/000060 NOSIG RMK QFE742

VFR

26°C / 14°C

[Víc]
Vítr 20º 8kt
Viditelnost 9700m
Počasí -
Oblaky Few Clouds 4000ft
Tlak 1016
Změna No Significant change
Nezpracované USCC 171030Z 02004MPS 9999 FEW040 26/14 Q1016 R27/000060 NOSIG RMK QFE742

VFR

26°C / 15°C

[Víc]
Vítr 360º 8kt
Viditelnost 9700m
Počasí -
Oblaky Scattered Clouds 4000ft
Tlak 1016
Změna No Significant change
Nezpracované USCC 171000Z 36004MPS 9999 SCT040 26/15 Q1016 R27/000060 NOSIG RMK QFE742

VFR

28°C / 14°C

[Víc]
Vítr 330º 10kt
Viditelnost 9700m
Počasí -
Oblaky Scattered Clouds 4000ft
Tlak 1016
Změna No Significant change
Nezpracované USCC 170930Z 33005MPS 9999 SCT040 28/14 Q1016 R27/000060 NOSIG RMK QFE742

VFR

27°C / 15°C

[Víc]
Vítr 340º 10kt
Viditelnost 9700m
Počasí -
Oblaky Scattered Clouds 3300ft
Tlak 1016
Změna No Significant change
Nezpracované USCC 170900Z 34005MPS 9999 SCT033 27/15 Q1016 R09/000060 NOSIG RMK QFE741

VFR

26°C / 16°C

[Víc]
Vítr 330º 10kt
Viditelnost 9700m
Počasí -
Oblaky Scattered Clouds 3300ft
Tlak 1016
Změna No Significant change
Nezpracované USCC 170830Z 33005MPS 9999 SCT033CB 26/16 Q1016 R27/000060 NOSIG RMK QFE742

MVFR

26°C / 17°C

[Víc]
Vítr 320º 10kt
Viditelnost 9700m
Počasí -
Oblaky Broken Clouds 3000ft
Tlak 1016
Změna No Significant change
Nezpracované USCC 170800Z 32005MPS 9999 BKN030CB 26/17 Q1016 R27/000060 NOSIG RMK QFE742

MVFR

26°C / 17°C

[Víc]
Vítr 330º 8kt
Viditelnost 9700m
Počasí -
Oblaky Broken Clouds 3000ft
Tlak 1016
Změna No Significant change
Nezpracované USCC 170730Z 33004MPS 9999 BKN030CB 26/17 Q1016 R27/000060 NOSIG RMK QFE742

MVFR

26°C / 17°C

[Víc]
Vítr 320º 8kt
Viditelnost 9700m
Počasí -
Oblaky Broken Clouds 3000ft
Tlak 1016
Změna No Significant change
Nezpracované USCC 170700Z 32004MPS 9999 BKN030CB 26/17 Q1016 R27/000060 NOSIG RMK QFE742

VFR

25°C / 18°C

[Víc]
Vítr 310º variable 280º to 360º 8kt
Viditelnost 9700m
Počasí -
Oblaky Scattered Clouds 3000ft
Tlak 1016
Změna No Significant change
Nezpracované USCC 170630Z 31004MPS 280V360 9999 SCT030CB 25/18 Q1016 R09/000060 NOSIG RMK QFE741

VFR

25°C / 18°C

[Víc]
Vítr 320º 8kt
Viditelnost 9700m
Počasí -
Oblaky Scattered Clouds 3000ft
Tlak 1016
Změna No Significant change
Nezpracované USCC 170600Z 32004MPS 9999 SCT030CB 25/18 Q1016 R27/000060 NOSIG RMK QFE742

TAF pro 55.31°S 61.5°V (USCC)

From till


From till Wind 340º 6kt. Gust 19kt. Visibility 9700m. Scattered Clouds 3000ft.
Becoming from till

Nezpracované: TAF USCC 171655Z 1718/1818 34003G10MPS 9999 SCT030 BECMG 1719/1721 6000

Radar pro 55.31°S 61.5°V

Mrholení
Slabé
Střední
Silné
Velmi silné
Kroupy

Značka lokality je umístněna na 55.31°S 61.5°V. Oranžové křížky označují blesky. Údaje poskytl nowcast.de (k dispozici v USA, Evropě a Austrálii). Mrholení nebo slabé sněžení může být pro radar neviditelné. Intenzita srážek je barevně označena od tyrkysové po červenou.

Aktuální snímky ze satelitu a srážky pro 55.31°S 61.5°V

Značka polohy je umístěna na 55.31°S 61.5°V. [Víc]

Satelitní snímek v reálném čase kombinuje viditelné světlo během dne s infračerveným zářením během noci. V noci není obraz tmavý, protože infračervené záření dokáže detekovat teplotní rozdíly. Nízká oblačnost a mlha se bohužel těžko odlišují od pozemních teplot, a proto mohou být během noci téměř neviditelné. Satelitní snímky z Meteosatu pro Evropu jsou aktualizovány v reálném čase každých 5 minut. Snímky z GOES-16/GOES-17 (Severní a Jižní Amerika) a Himawari (Asie) jsou aktualizovány) každých 10 minut.

Srážky se odhadují z radarů a družic. Odhady srážek ze satelitů jsou v noci méně přesné než ve dne.

© 2024 meteoblue, NOAA Satellites GOES-16 and EUMETSAT. Údaje o blescích poskytuje nowcast.

Zpět nahoru
×
Dobrý den,
zdá se, že používáte blokovač reklam.

Reklama je nezbytná pro udržování našich bezplatných webových stránek s jedinečnými detaily a přesností.

Prosím, zapište www.meteoblue.com do svého blokovače reklam nebo zvažte nákup některého z našich produktů:

Máte již předplatné?
Pak se prosím přihlaste.